Darstellungsparameter: Aktuell verwendete Einstellungen:
Skalierung der Graphiken ... ?
xyx+y,   Skalierungsfaktor:      Skalierung: Modus: x, Faktor: 1
Darstellungszeitraum ... ?
Vom - - bis: - -   Zeitraum: 23.03.2020 - 23.03.2020
Min/Max/Avg-Anzeige ... ?
Zeige MMA aktuell
Zeige MMA Monat
Zeige MMA alles
Zeige --A aktuell
Zeige --A Monat
Zeige --A alles
Keine MMA-Anzeige
MMA:
Average (ber die Originaldaten)
MMA-Basis: 23.03.2020 - 23.03.2020
Quicknavigation für Darstellung... ?
Tage:      1T, 2T, 3T, 5T -1T -2T -3T -5T +1T +2T +3T +5T
Wochen: 1W, 2W, 3W -1W -2W -3W +1W +2W +3W
Monate: 1M, 3M, 6M -1M -3M -6M +1M +3M +6M
Jahre:    1J, 3J, 5J, 10J -1J -3J -5J -10J +1J +3J +5J +10J
Nutze für die Darstellung ... ?
Originaldaten oder Mittelwerte auf ...
Stundenbasis Tagesbasis Wochenbasis
Monatsbasis Jahresbasis      Datenbasis: Original-Daten
Darstellen als:
Statistik (Auto) Statistik J:M      Darstellung:
Zur Graphik,    zurück zur Übersicht aller Sensoren.
 
Tabellarische Datenbersicht: ?
 
Sensor: Nr:Datum:Temp:Abs-Feuchte:Windchill:Wind:
Aussen-T/F 1 23-03-2020 00:00:00 1 C 3.69 g/m*3 1 C 1.6 km/h
2 23-03-2020 00:05:00 0.9 C 3.66 g/m*3 -1.14 C 6.4 km/h
3 23-03-2020 00:10:00 0.8 C 3.63 g/m*3 0.8 C 3.2 km/h
4 23-03-2020 00:15:00 0.8 C 3.69 g/m*3 0.8 C 1.6 km/h
5 23-03-2020 00:20:00 0.7 C 3.66 g/m*3 0.7 C 1.6 km/h
6 23-03-2020 00:25:00 0.5 C 3.66 g/m*3 0.5 C 0 km/h
7 23-03-2020 00:30:00 0.3 C 3.66 g/m*3 0.3 C 0 km/h
8 23-03-2020 00:35:00 0.2 C 3.64 g/m*3 0.2 C 1.6 km/h
9 23-03-2020 00:40:00 0.1 C 3.66 g/m*3 0.1 C 3.2 km/h
10 23-03-2020 00:45:00 0 C 3.63 g/m*3 0 C 1.6 km/h
11 23-03-2020 00:50:00 -0.1 C 3.66 g/m*3 -0.1 C 1.6 km/h
12 23-03-2020 00:55:00 -0.1 C 3.66 g/m*3 -0.1 C 4.8 km/h
13 23-03-2020 01:00:00 -0.2 C 3.63 g/m*3 -0.2 C 3.2 km/h
14 23-03-2020 01:05:00 -0.2 C 3.58 g/m*3 -0.2 C 3.2 km/h
15 23-03-2020 01:10:00 -0.2 C 3.58 g/m*3 -0.2 C 3.2 km/h
16 23-03-2020 01:15:00 -0.2 C 3.58 g/m*3 -0.2 C 4.8 km/h
17 23-03-2020 01:20:00 -0.3 C 3.61 g/m*3 -0.3 C 3.2 km/h
18 23-03-2020 01:25:00 -0.3 C 3.56 g/m*3 -0.3 C 0 km/h
19 23-03-2020 01:30:00 -0.3 C 3.61 g/m*3 -0.3 C 3.2 km/h
20 23-03-2020 01:35:00 -0.3 C 3.61 g/m*3 -0.3 C 3.2 km/h
21 23-03-2020 01:40:00 -0.4 C 3.58 g/m*3 -0.4 C 3.2 km/h
22 23-03-2020 01:45:00 -0.4 C 3.58 g/m*3 -0.4 C 4.8 km/h
23 23-03-2020 01:50:00 -0.5 C 3.51 g/m*3 -0.5 C 4.8 km/h
24 23-03-2020 01:55:00 -0.5 C 3.56 g/m*3 -0.5 C 0 km/h
25 23-03-2020 02:00:00 -0.6 C 3.53 g/m*3 -0.6 C 4.8 km/h
Sensor: Nr:Datum:Temp:Abs-Feuchte:Windchill:Wind:
Aussen-T/F 26 23-03-2020 02:05:00 -0.6 C 3.53 g/m*3 -0.6 C 4.8 km/h
27 23-03-2020 02:10:00 -0.6 C 3.53 g/m*3 -0.6 C 3.2 km/h
28 23-03-2020 02:15:00 -0.7 C 3.51 g/m*3 -0.7 C 4.8 km/h
29 23-03-2020 02:20:00 -0.7 C 3.46 g/m*3 -0.7 C 4.8 km/h
30 23-03-2020 02:25:00 -0.7 C 3.46 g/m*3 -0.7 C 4.8 km/h
31 23-03-2020 02:30:00 -0.7 C 3.46 g/m*3 -0.7 C 4.8 km/h
32 23-03-2020 02:35:00 -0.7 C 3.42 g/m*3 -0.7 C 1.6 km/h
33 23-03-2020 02:40:00 -0.7 C 3.51 g/m*3 -0.7 C 3.2 km/h
34 23-03-2020 02:45:00 -0.7 C 3.51 g/m*3 -0.7 C 3.2 km/h
35 23-03-2020 02:50:00 -0.8 C 3.44 g/m*3 -0.8 C 4.8 km/h
36 23-03-2020 02:55:00 -0.8 C 3.44 g/m*3 -0.8 C 3.2 km/h
37 23-03-2020 03:00:00 -0.9 C 3.37 g/m*3 -0.9 C 1.6 km/h
38 23-03-2020 03:05:00 -0.9 C 3.41 g/m*3 -0.9 C 4.8 km/h
39 23-03-2020 03:10:00 -0.9 C 3.41 g/m*3 -0.9 C 3.2 km/h
40 23-03-2020 03:15:00 -0.9 C 3.46 g/m*3 -0.9 C 4.8 km/h
41 23-03-2020 03:20:00 -1 C 3.44 g/m*3 -1 C 4.8 km/h
42 23-03-2020 03:25:00 -1 C 3.44 g/m*3 -1 C 3.2 km/h
43 23-03-2020 03:30:00 -1.1 C 3.37 g/m*3 -1.1 C 1.6 km/h
44 23-03-2020 03:35:00 -1.1 C 3.37 g/m*3 -3.45 C 6.4 km/h
45 23-03-2020 03:40:00 -1.1 C 3.37 g/m*3 -1.1 C 1.6 km/h
46 23-03-2020 03:45:00 -1.1 C 3.41 g/m*3 -1.1 C 4.8 km/h
47 23-03-2020 03:50:00 -1.2 C 3.39 g/m*3 -1.2 C 4.8 km/h
48 23-03-2020 03:55:00 -1.3 C 3.36 g/m*3 -1.3 C 4.8 km/h
49 23-03-2020 04:00:00 -1.3 C 3.32 g/m*3 -1.3 C 4.8 km/h
50 23-03-2020 04:05:00 -1.3 C 3.36 g/m*3 -1.3 C 3.2 km/h
Sensor: Nr:Datum:Temp:Abs-Feuchte:Windchill:Wind:
Aussen-T/F 51 23-03-2020 04:10:00 -1.3 C 3.36 g/m*3 -1.3 C 4.8 km/h
52 23-03-2020 04:15:00 -1.4 C 3.34 g/m*3 -1.4 C 3.2 km/h
53 23-03-2020 04:20:00 -1.4 C 3.34 g/m*3 -1.4 C 1.6 km/h
54 23-03-2020 04:25:00 -1.5 C 3.32 g/m*3 -3.91 C 6.4 km/h
55 23-03-2020 04:30:00 -1.5 C 3.32 g/m*3 -1.5 C 4.8 km/h
56 23-03-2020 04:35:00 -1.6 C 3.34 g/m*3 -1.6 C 3.2 km/h
57 23-03-2020 04:40:00 -1.7 C 3.27 g/m*3 -1.7 C 3.2 km/h
58 23-03-2020 04:45:00 -1.7 C 3.31 g/m*3 -1.7 C 1.6 km/h
59 23-03-2020 04:50:00 -1.7 C 3.36 g/m*3 -1.7 C 3.2 km/h
60 23-03-2020 04:55:00 -1.8 C 3.33 g/m*3 -1.8 C 0 km/h
61 23-03-2020 05:00:00 -1.8 C 3.29 g/m*3 -1.8 C 3.2 km/h
62 23-03-2020 05:05:00 -1.8 C 3.33 g/m*3 -1.8 C 1.6 km/h
63 23-03-2020 05:10:00 -1.9 C 3.31 g/m*3 -1.9 C 1.6 km/h
64 23-03-2020 05:15:00 -1.9 C 3.31 g/m*3 -1.9 C 0 km/h
65 23-03-2020 05:20:00 -2 C 3.29 g/m*3 -2 C 0 km/h
66 23-03-2020 05:25:00 -2 C 3.29 g/m*3 -2 C 3.2 km/h
67 23-03-2020 05:30:00 -2.1 C 3.26 g/m*3 -2.1 C 4.8 km/h
68 23-03-2020 05:35:00 -2.1 C 3.26 g/m*3 -2.1 C 4.8 km/h
69 23-03-2020 05:40:00 -2.1 C 3.26 g/m*3 -2.1 C 4.8 km/h
70 23-03-2020 05:45:00 -2.1 C 3.26 g/m*3 -2.1 C 3.2 km/h
71 23-03-2020 05:50:00 -2.1 C 3.31 g/m*3 -2.1 C 3.2 km/h
72 23-03-2020 05:55:00 -2.1 C 3.31 g/m*3 -2.1 C 1.6 km/h
73 23-03-2020 06:00:00 -2.2 C 3.28 g/m*3 -2.2 C 4.8 km/h
74 23-03-2020 06:05:00 -2.2 C 3.28 g/m*3 -2.2 C 3.2 km/h
75 23-03-2020 06:10:00 -2.3 C 3.26 g/m*3 -2.3 C 3.2 km/h
Sensor: Nr:Datum:Temp:Abs-Feuchte:Windchill:Wind:
Aussen-T/F 76 23-03-2020 06:15:00 -2.3 C 3.26 g/m*3 -2.3 C 1.6 km/h
77 23-03-2020 06:20:00 -2.3 C 3.26 g/m*3 -2.3 C 3.2 km/h
78 23-03-2020 06:25:00 -2.3 C 3.26 g/m*3 -2.3 C 3.2 km/h
79 23-03-2020 06:30:00 -2.4 C 3.24 g/m*3 -2.4 C 3.2 km/h
80 23-03-2020 06:35:00 -2.4 C 3.24 g/m*3 -2.4 C 4.8 km/h
81 23-03-2020 06:40:00 -2.4 C 3.24 g/m*3 -2.4 C 0 km/h
82 23-03-2020 06:45:00 -2.4 C 3.24 g/m*3 -2.4 C 0 km/h
83 23-03-2020 06:50:00 -2.4 C 3.24 g/m*3 -2.4 C 3.2 km/h
84 23-03-2020 06:55:00 -2.4 C 3.28 g/m*3 -2.4 C 1.6 km/h
85 23-03-2020 07:00:00 -2.3 C 3.3 g/m*3 -2.3 C 4.8 km/h
86 23-03-2020 07:05:00 -2.3 C 3.3 g/m*3 -2.3 C 3.2 km/h
87 23-03-2020 07:10:00 -2.3 C 3.3 g/m*3 -2.3 C 3.2 km/h
88 23-03-2020 07:15:00 -2.3 C 3.3 g/m*3 -2.3 C 4.8 km/h
89 23-03-2020 07:20:00 -2.2 C 3.33 g/m*3 -2.2 C 4.8 km/h
90 23-03-2020 07:25:00 -2.2 C 3.28 g/m*3 -2.2 C 3.2 km/h
91 23-03-2020 07:30:00 -2.1 C 3.31 g/m*3 -2.1 C 1.6 km/h
92 23-03-2020 07:35:00 -2.1 C 3.31 g/m*3 -2.1 C 0 km/h
93 23-03-2020 07:40:00 -2 C 3.33 g/m*3 -2 C 4.8 km/h
94 23-03-2020 07:45:00 -1.9 C 3.31 g/m*3 -1.9 C 1.6 km/h
95 23-03-2020 07:50:00 -1.7 C 3.23 g/m*3 -1.7 C 4.8 km/h
96 23-03-2020 07:55:00 -1.3 C 3.28 g/m*3 -4.78 C 9.7 km/h
97 23-03-2020 08:00:00 -1.2 C 3.34 g/m*3 -1.2 C 3.2 km/h
98 23-03-2020 08:05:00 -1.1 C 3.37 g/m*3 -3.45 C 6.4 km/h
99 23-03-2020 08:10:00 -1.1 C 3.23 g/m*3 -4.06 C 8.1 km/h
100 23-03-2020 08:15:00 -0.9 C 3.23 g/m*3 -0.9 C 4.8 km/h
Sensor: Nr:Datum:Temp:Abs-Feuchte:Windchill:Wind:
Aussen-T/F 101 23-03-2020 08:20:00 -0.7 C 3.09 g/m*3 -2.99 C 6.4 km/h
102 23-03-2020 08:25:00 -0.4 C 3.2 g/m*3 -3.71 C 9.7 km/h
103 23-03-2020 08:30:00 -0.2 C 3.15 g/m*3 -3.47 C 9.7 km/h
104 23-03-2020 08:35:00 0 C 3 g/m*3 -2.18 C 6.4 km/h
105 23-03-2020 08:40:00 0.3 C 3.02 g/m*3 -1.84 C 6.4 km/h
106 23-03-2020 08:45:00 0.4 C 2.99 g/m*3 -2.3 C 8.1 km/h
107 23-03-2020 08:50:00 0.6 C 2.98 g/m*3 0.6 C 4.8 km/h
108 23-03-2020 08:55:00 0.7 C 2.9 g/m*3 -2.4 C 9.7 km/h
109 23-03-2020 09:00:00 0.9 C 2.99 g/m*3 -2.9 C 12.9 km/h
110 23-03-2020 09:05:00 1 C 2.91 g/m*3 1 C 3.2 km/h
111 23-03-2020 09:10:00 1.2 C 2.95 g/m*3 1.2 C 3.2 km/h
112 23-03-2020 09:15:00 1.2 C 2.95 g/m*3 -0.8 C 6.4 km/h
113 23-03-2020 09:20:00 1.3 C 2.91 g/m*3 -2.07 C 11.3 km/h
114 23-03-2020 09:25:00 1.4 C 3.04 g/m*3 -1.95 C 11.3 km/h
115 23-03-2020 09:30:00 1.7 C 2.99 g/m*3 -1.93 C 12.9 km/h
116 23-03-2020 09:35:00 1.8 C 2.96 g/m*3 -1.09 C 9.7 km/h
117 23-03-2020 09:40:00 1.9 C 2.87 g/m*3 -2.51 C 17.7 km/h
118 23-03-2020 09:45:00 2.2 C 2.82 g/m*3 -0.99 C 11.3 km/h
119 23-03-2020 09:50:00 2.4 C 2.85 g/m*3 -1.07 C 12.9 km/h
120 23-03-2020 09:55:00 2.6 C 2.95 g/m*3 2.6 C 4.8 km/h
121 23-03-2020 10:00:00 2.7 C 2.97 g/m*3 -0.38 C 11.3 km/h
122 23-03-2020 10:05:00 3 C 2.91 g/m*3 -0.02 C 11.3 km/h
123 23-03-2020 10:10:00 3.1 C 2.93 g/m*3 1.4 C 6.4 km/h
124 23-03-2020 10:15:00 3.3 C 2.79 g/m*3 0.7 C 9.7 km/h
125 23-03-2020 10:20:00 3.4 C 2.75 g/m*3 0.82 C 9.7 km/h
Sensor: Nr:Datum:Temp:Abs-Feuchte:Windchill:Wind:
Aussen-T/F 126 23-03-2020 10:25:00 3.7 C 2.99 g/m*3 2.09 C 6.4 km/h
127 23-03-2020 10:30:00 3.9 C 2.72 g/m*3 0.22 C 16.1 km/h
128 23-03-2020 10:35:00 4.1 C 2.69 g/m*3 1.31 C 11.3 km/h
129 23-03-2020 10:40:00 4.3 C 2.66 g/m*3 1.89 C 9.7 km/h
130 23-03-2020 10:45:00 4.6 C 2.58 g/m*3 1.61 C 12.9 km/h
131 23-03-2020 10:50:00 4.8 C 2.55 g/m*3 1.85 C 12.9 km/h
132 23-03-2020 10:55:00 5 C 2.72 g/m*3 3.11 C 8.1 km/h
133 23-03-2020 11:00:00 5.2 C 2.75 g/m*3 2.96 C 9.7 km/h
134 23-03-2020 11:05:00 5.4 C 2.58 g/m*3 2.32 C 14.5 km/h
135 23-03-2020 11:10:00 5.6 C 2.55 g/m*3 2.57 C 14.5 km/h
136 23-03-2020 11:15:00 5.7 C 2.49 g/m*3 2.24 C 17.7 km/h
137 23-03-2020 11:20:00 5.8 C 2.51 g/m*3 2.58 C 16.1 km/h
138 23-03-2020 11:25:00 5.9 C 2.45 g/m*3 2.93 C 14.5 km/h
139 23-03-2020 11:30:00 6.1 C 2.41 g/m*3 3.43 C 12.9 km/h
140 23-03-2020 11:35:00 6.3 C 2.37 g/m*3 3.68 C 12.9 km/h
141 23-03-2020 11:40:00 6.4 C 2.46 g/m*3 3.32 C 16.1 km/h
142 23-03-2020 11:45:00 6.4 C 2.46 g/m*3 4.08 C 11.3 km/h
143 23-03-2020 11:50:00 6.6 C 2.49 g/m*3 4.99 C 8.1 km/h
144 23-03-2020 11:55:00 6.8 C 2.45 g/m*3 4.29 C 12.9 km/h
145 23-03-2020 12:00:00 6.9 C 2.46 g/m*3 3.94 C 16.1 km/h
146 23-03-2020 12:05:00 6.9 C 2.23 g/m*3 3.04 C 24.1 km/h
147 23-03-2020 12:10:00 7 C 2.25 g/m*3 3.86 C 17.7 km/h
148 23-03-2020 12:15:00 7.2 C 2.2 g/m*3 3.92 C 19.3 km/h
149 23-03-2020 12:20:00 7.3 C 2.37 g/m*3 4.66 C 14.5 km/h
150 23-03-2020 12:25:00 7.5 C 2.24 g/m*3 5.14 C 12.9 km/h
Sensor: Nr:Datum:Temp:Abs-Feuchte:Windchill:Wind:
Aussen-T/F 151 23-03-2020 12:30:00 7.7 C 2.43 g/m*3 5.94 C 9.7 km/h
152 23-03-2020 12:35:00 7.8 C 2.29 g/m*3 5.27 C 14.5 km/h
153 23-03-2020 12:40:00 7.9 C 2.14 g/m*3 6.18 C 9.7 km/h
154 23-03-2020 12:45:00 8 C 2.15 g/m*3 6.01 C 11.3 km/h
155 23-03-2020 12:50:00 8 C 2.15 g/m*3 5.11 C 17.7 km/h
156 23-03-2020 12:55:00 8 C 2.23 g/m*3 5.11 C 17.7 km/h
157 23-03-2020 13:00:00 8.1 C 2.25 g/m*3 5.64 C 14.5 km/h
158 23-03-2020 13:05:00 8.2 C 2.34 g/m*3 4.86 C 22.5 km/h
159 23-03-2020 13:10:00 8.1 C 2.16 g/m*3 4.44 C 25.7 km/h
160 23-03-2020 13:15:00 8.3 C 2.28 g/m*3 5.14 C 20.9 km/h
161 23-03-2020 13:20:00 8.3 C 2.28 g/m*3 5.14 C 20.9 km/h
162 23-03-2020 13:25:00 8.4 C 2.12 g/m*3 6.49 C 11.3 km/h
163 23-03-2020 13:30:00 8.6 C 2.23 g/m*3 7.01 C 9.7 km/h
164 23-03-2020 13:35:00 8.7 C 2.25 g/m*3 5.49 C 22.5 km/h
165 23-03-2020 13:40:00 8.8 C 2.18 g/m*3 5.48 C 24.1 km/h
166 23-03-2020 13:45:00 8.8 C 2.09 g/m*3 6.72 C 12.9 km/h
167 23-03-2020 13:50:00 8.8 C 2.18 g/m*3 6.11 C 17.7 km/h
168 23-03-2020 13:55:00 8.9 C 2.01 g/m*3 6.42 C 16.1 km/h
169 23-03-2020 14:00:00 8.7 C 1.99 g/m*3 5.81 C 19.3 km/h
170 23-03-2020 14:05:00 8.7 C 1.99 g/m*3 6.85 C 11.3 km/h
171 23-03-2020 14:10:00 8.7 C 2.16 g/m*3 6.6 C 12.9 km/h
172 23-03-2020 14:15:00 8.8 C 2.09 g/m*3 6.72 C 12.9 km/h
173 23-03-2020 14:20:00 8.8 C 2.26 g/m*3 6.5 C 14.5 km/h
174 23-03-2020 14:25:00 9 C 2.12 g/m*3 5.87 C 22.5 km/h
175 23-03-2020 14:30:00 9.1 C 2.13 g/m*3 6.48 C 17.7 km/h
Sensor: Nr:Datum:Temp:Abs-Feuchte:Windchill:Wind:
Aussen-T/F 176 23-03-2020 14:35:00 9 C 2.12 g/m*3 6.36 C 17.7 km/h
177 23-03-2020 14:40:00 9 C 2.29 g/m*3 6.75 C 14.5 km/h
178 23-03-2020 14:45:00 9 C 2.2 g/m*3 7.21 C 11.3 km/h
179 23-03-2020 14:50:00 9 C 2.2 g/m*3 6.75 C 14.5 km/h
180 23-03-2020 14:55:00 9 C 2.12 g/m*3 6.36 C 17.7 km/h
181 23-03-2020 15:00:00 9 C 2.2 g/m*3 7.21 C 11.3 km/h
182 23-03-2020 15:05:00 9.1 C 2.22 g/m*3 6.87 C 14.5 km/h
183 23-03-2020 15:10:00 9.2 C 2.23 g/m*3 6.79 C 16.1 km/h
184 23-03-2020 15:15:00 9.3 C 2.34 g/m*3 7.33 C 12.9 km/h
185 23-03-2020 15:20:00 9.3 C 2.16 g/m*3 7.58 C 11.3 km/h
186 23-03-2020 15:25:00 9.4 C 2.35 g/m*3 7.7 C 11.3 km/h
187 23-03-2020 15:30:00 9.5 C 2.18 g/m*3 7.36 C 14.5 km/h
188 23-03-2020 15:35:00 9.6 C 2.2 g/m*3 7.48 C 14.5 km/h
189 23-03-2020 15:40:00 9.7 C 2.3 g/m*3 7.82 C 12.9 km/h
190 23-03-2020 15:45:00 9.7 C 2.3 g/m*3 7.61 C 14.5 km/h
191 23-03-2020 15:50:00 9.6 C 2.11 g/m*3 6.94 C 19.3 km/h
192 23-03-2020 15:55:00 9.7 C 2.3 g/m*3 8.06 C 11.3 km/h
193 23-03-2020 16:00:00 9.8 C 2.23 g/m*3 7.94 C 12.9 km/h
194 23-03-2020 16:05:00 9.8 C 2.13 g/m*3 8.18 C 11.3 km/h
195 23-03-2020 16:10:00 10 C 2.35 g/m*3 8.19 C 12.9 km/h
196 23-03-2020 16:15:00 10.1 C 2.46 g/m*3 8.31 C 12.9 km/h
197 23-03-2020 16:20:00 10.3 C 2.2 g/m*3 8.78 C 11.3 km/h
198 23-03-2020 16:25:00 10.4 C 2.31 g/m*3 9.46 C 8.1 km/h
199 23-03-2020 16:30:00 10.4 C 2.22 g/m*3 8.67 C 12.9 km/h
200 23-03-2020 16:35:00 10.4 C 2.22 g/m*3 8.9 C 11.3 km/h
Sensor: Nr:Datum:Temp:Abs-Feuchte:Windchill:Wind:
Aussen-T/F 201 23-03-2020 16:40:00 10.4 C 2.41 g/m*3 8.9 C 11.3 km/h
202 23-03-2020 16:45:00 10.5 C 2.33 g/m*3 8.8 C 12.9 km/h
203 23-03-2020 16:50:00 10.4 C 2.31 g/m*3 8.67 C 12.9 km/h
204 23-03-2020 16:55:00 10.3 C 2.49 g/m*3 8.78 C 11.3 km/h
205 23-03-2020 17:00:00 10.4 C 2.31 g/m*3 8.67 C 12.9 km/h
206 23-03-2020 17:05:00 10.4 C 2.51 g/m*3 9.83 C 6.4 km/h
207 23-03-2020 17:10:00 10.3 C 2.49 g/m*3 8.78 C 11.3 km/h
208 23-03-2020 17:15:00 10.5 C 2.52 g/m*3 8.8 C 12.9 km/h
209 23-03-2020 17:20:00 10.4 C 2.51 g/m*3 9.16 C 9.7 km/h
210 23-03-2020 17:25:00 10.4 C 2.51 g/m*3 9.16 C 9.7 km/h
211 23-03-2020 17:30:00 10.3 C 2.59 g/m*3 10.3 C 4.8 km/h
212 23-03-2020 17:35:00 10.2 C 2.38 g/m*3 8.66 C 11.3 km/h
213 23-03-2020 17:40:00 10.2 C 2.57 g/m*3 8.92 C 9.7 km/h
214 23-03-2020 17:45:00 10.1 C 2.46 g/m*3 8.8 C 9.7 km/h
215 23-03-2020 17:50:00 10 C 2.44 g/m*3 8.99 C 8.1 km/h
216 23-03-2020 17:55:00 9.9 C 2.43 g/m*3 9.25 C 6.4 km/h
217 23-03-2020 18:00:00 9.9 C 2.52 g/m*3 9.9 C 3.2 km/h
218 23-03-2020 18:05:00 9.8 C 2.32 g/m*3 9.8 C 4.8 km/h
219 23-03-2020 18:10:00 9.8 C 2.41 g/m*3 9.8 C 4.8 km/h
220 23-03-2020 18:15:00 9.6 C 2.47 g/m*3 9.6 C 4.8 km/h
221 23-03-2020 18:20:00 9.4 C 2.53 g/m*3 8.28 C 8.1 km/h
222 23-03-2020 18:25:00 9.1 C 2.48 g/m*3 8.33 C 6.4 km/h
223 23-03-2020 18:30:00 8.8 C 2.44 g/m*3 8.8 C 4.8 km/h
224 23-03-2020 18:35:00 8.4 C 2.97 g/m*3 8.4 C 1.6 km/h
225 23-03-2020 18:40:00 7.9 C 3.29 g/m*3 7.9 C 4.8 km/h
Sensor: Nr:Datum:Temp:Abs-Feuchte:Windchill:Wind:
Aussen-T/F 226 23-03-2020 18:45:00 7.2 C 3.3 g/m*3 7.2 C 4.8 km/h
227 23-03-2020 18:50:00 6.6 C 3.4 g/m*3 6.6 C 4.8 km/h
228 23-03-2020 18:55:00 5.9 C 3.39 g/m*3 5.9 C 4.8 km/h
229 23-03-2020 19:00:00 5.3 C 3.33 g/m*3 5.3 C 4.8 km/h
230 23-03-2020 19:05:00 4.9 C 3.44 g/m*3 4.9 C 4.8 km/h
231 23-03-2020 19:10:00 4.6 C 3.37 g/m*3 4.6 C 4.8 km/h
232 23-03-2020 19:15:00 4.2 C 3.35 g/m*3 2.67 C 6.4 km/h
233 23-03-2020 19:20:00 3.9 C 3.41 g/m*3 3.9 C 4.8 km/h
234 23-03-2020 19:25:00 3.7 C 3.43 g/m*3 2.09 C 6.4 km/h
235 23-03-2020 19:30:00 3.5 C 3.44 g/m*3 3.5 C 4.8 km/h
236 23-03-2020 19:35:00 3.3 C 3.46 g/m*3 1.63 C 6.4 km/h
237 23-03-2020 19:40:00 3.2 C 3.43 g/m*3 1.51 C 6.4 km/h
238 23-03-2020 19:45:00 3 C 3.45 g/m*3 3 C 4.8 km/h
239 23-03-2020 19:50:00 2.9 C 3.48 g/m*3 2.9 C 4.8 km/h
240 23-03-2020 19:55:00 2.8 C 3.52 g/m*3 2.8 C 4.8 km/h
241 23-03-2020 20:00:00 2.6 C 3.53 g/m*3 2.6 C 4.8 km/h
242 23-03-2020 20:05:00 2.5 C 3.45 g/m*3 2.5 C 4.8 km/h
243 23-03-2020 20:10:00 2.3 C 3.52 g/m*3 2.3 C 4.8 km/h
244 23-03-2020 20:15:00 2.2 C 3.49 g/m*3 2.2 C 4.8 km/h
245 23-03-2020 20:20:00 2.2 C 3.49 g/m*3 0.36 C 6.4 km/h
246 23-03-2020 20:25:00 2.1 C 3.52 g/m*3 2.1 C 4.8 km/h
247 23-03-2020 20:30:00 2.1 C 3.58 g/m*3 2.1 C 4.8 km/h
248 23-03-2020 20:35:00 2 C 3.45 g/m*3 0.13 C 6.4 km/h
249 23-03-2020 20:40:00 2 C 3.45 g/m*3 2 C 4.8 km/h
250 23-03-2020 20:45:00 2 C 3.45 g/m*3 0.13 C 6.4 km/h
Sensor: Nr:Datum:Temp:Abs-Feuchte:Windchill:Wind:
Aussen-T/F 251 23-03-2020 20:50:00 2 C 3.45 g/m*3 0.13 C 6.4 km/h
252 23-03-2020 20:55:00 1.9 C 3.42 g/m*3 0.01 C 6.4 km/h
253 23-03-2020 21:00:00 1.9 C 3.53 g/m*3 1.9 C 4.8 km/h
254 23-03-2020 21:05:00 1.8 C 3.51 g/m*3 1.8 C 4.8 km/h
255 23-03-2020 21:10:00 1.7 C 3.54 g/m*3 1.7 C 3.2 km/h
256 23-03-2020 21:15:00 1.6 C 3.57 g/m*3 -0.33 C 6.4 km/h
257 23-03-2020 21:20:00 1.5 C 3.54 g/m*3 1.5 C 4.8 km/h
258 23-03-2020 21:25:00 1.3 C 3.55 g/m*3 1.3 C 4.8 km/h
259 23-03-2020 21:30:00 1.2 C 3.53 g/m*3 1.2 C 4.8 km/h
260 23-03-2020 21:35:00 1.1 C 3.55 g/m*3 1.1 C 3.2 km/h
261 23-03-2020 21:40:00 1.1 C 3.55 g/m*3 1.1 C 4.8 km/h
262 23-03-2020 21:45:00 1 C 3.53 g/m*3 1 C 3.2 km/h
263 23-03-2020 21:50:00 0.9 C 3.51 g/m*3 0.9 C 3.2 km/h
264 23-03-2020 21:55:00 0.8 C 3.48 g/m*3 0.8 C 0 km/h
265 23-03-2020 22:00:00 0.7 C 3.51 g/m*3 0.7 C 1.6 km/h
266 23-03-2020 22:05:00 0.6 C 3.53 g/m*3 0.6 C 1.6 km/h
267 23-03-2020 22:10:00 0.4 C 3.54 g/m*3 0.4 C 0 km/h
268 23-03-2020 22:15:00 0.3 C 3.56 g/m*3 0.3 C 3.2 km/h
269 23-03-2020 22:20:00 0.2 C 3.54 g/m*3 0.2 C 3.2 km/h
270 23-03-2020 22:25:00 0.2 C 3.59 g/m*3 0.2 C 0 km/h
271 23-03-2020 22:30:00 0.1 C 3.61 g/m*3 0.1 C 0 km/h
272 23-03-2020 22:35:00 0 C 3.54 g/m*3 0 C 3.2 km/h
273 23-03-2020 22:40:00 -0.1 C 3.56 g/m*3 -0.1 C 3.2 km/h
274 23-03-2020 22:45:00 -0.1 C 3.56 g/m*3 -0.1 C 0 km/h
275 23-03-2020 22:50:00 -0.1 C 3.56 g/m*3 -0.1 C 0 km/h
Sensor: Nr:Datum:Temp:Abs-Feuchte:Windchill:Wind:
Aussen-T/F 276 23-03-2020 22:55:00 -0.2 C 3.54 g/m*3 -0.2 C 0 km/h
277 23-03-2020 23:00:00 -0.3 C 3.56 g/m*3 -0.3 C 0 km/h
278 23-03-2020 23:05:00 -0.4 C 3.53 g/m*3 -0.4 C 0 km/h
279 23-03-2020 23:10:00 -0.4 C 3.58 g/m*3 -0.4 C 0 km/h
280 23-03-2020 23:15:00 -0.4 C 3.58 g/m*3 -0.4 C 0 km/h
281 23-03-2020 23:20:00 -0.4 C 3.53 g/m*3 -0.4 C 0 km/h
282 23-03-2020 23:25:00 -0.4 C 3.58 g/m*3 -0.4 C 0 km/h
283 23-03-2020 23:30:00 -0.5 C 3.56 g/m*3 -0.5 C 0 km/h
284 23-03-2020 23:35:00 -0.6 C 3.58 g/m*3 -0.6 C 0 km/h
285 23-03-2020 23:40:00 -0.6 C 3.58 g/m*3 -0.6 C 0 km/h
286 23-03-2020 23:45:00 -0.7 C 3.55 g/m*3 -0.7 C 0 km/h
287 23-03-2020 23:50:00 -0.7 C 3.55 g/m*3 -0.7 C 0 km/h
288 23-03-2020 23:55:00 -0.7 C 3.55 g/m*3 -0.7 C 0 km/h

Legende:
   Min
   Max


Maximal/Minimal-Werte vom 23.03.2020 - 23.03.2020

Sensor Min Max Avg
Temp
(Aussen-T/F)
-2.4 °C
23-03-2020  06:30:00
10.5 °C
23-03-2020  16:45:00
3 °C
Abs-Feuchte
(Aussen-T/F)
1.99 g/m*3
23-03-2020  14:00:00
3.69 g/m*3
23-03-2020  00:00:00
3.01 g/m*3
Windchill
(Aussen-T/F)
-4.78 C
23-03-2020  07:55:00
10.3 C
23-03-2020  17:30:00
1.95 C

Die Daten stammen von einer Davis Vantage Pro 2 Wetter-Station und werden unter Linux mit der Software wview2wettercgi und aufbereitet. Alle Angaben erfolgen ohne Gewähr für ihre Vollständigkeit oder Richtigkeit.
Kontakt: Rainer Krienke krienke@uni-koblenz.de . Meine Webseiten an der Uni Koblenz oder privat.
Version: $Revision: 0.78 $